Location: Crescent
(42.8242°N, 73.7329°W)
Time: 14:49:16
(UTC+00:00)

Explorer 11/Cluster Stage 4 - Pass Details

Date: 25 February 2026
Orbit: 463 x 1176 km, 28.8° (Epoch: 8 March)

Event Time Altitude Azimuth Distance (km) Brightness Sun altitude
Rises 13:31:07 0° 211° (SSW) 3,811 10.1 18.5°
Reaches altitude 10° 13:36:18 10° 180° (S) 2,682 9.9 19.3°
Maximum altitude 13:38:09 11° 163° (SSE) 2,516 10.1 19.6°
Drops below altitude 10° 13:39:56 10° 146° (SE) 2,536 10.7 19.9°
Sets 13:44:23 0° 113° (ESE) 3,269 11.2 20.6°
